Вернуться в каталог

FREGAT DEB

LostUNKNOWN
NORAD 45870·DEBRIS·🇷🇺 Russia

Запущен Jul 18, 2011 с Baikonur Cosmodrome

Loading…

Ближайшие Пролёты (ближайшие 24 часа)

TLE

УстаревшееSource: Space-Track

Эпоха: Jan 27, 2021, 00:55 UTC

1 45870U 11037CU  21027.03888359  .00058052  00000-0  14748+0 0  9995
2 45870  51.4098 323.8668 2257400 352.5751   4.6230  9.85556291 23423

Отслеживайте FREGAT DEB в реальном времени с AllMySat

Download on the App Store